Location: Norton
(51.3000°N, 0.8167°E)
Time: 17:52:12
(UTC+00:00)

Cosmos 1470 Rocket - Pass Details

Date: 03 March 2021
Orbit: 603 x 634 km, 82.5° (Epoch: 13 April)

Event Time Altitude Azimuth Distance (km) Brightness Sun altitude
Rises 18:36:10 0° 176° (S) 2,918 7.0 -9.4°
Reaches altitude 10° 18:38:26 10° 172° (S) 2,013 6.1 -9.8°
Maximum altitude 18:42:47 55° 95° (E) 767 3.7 -10.4°
Drops below altitude 10° 18:47:09 10° 18° (NNE) 2,015 6.0 -11.1°
Sets 18:49:25 0° 14° (NNE) 2,922 6.9 -11.5°
